User: anonymous   Login
Location: Unspecified
(0.0000°N, 0.0000°E)
Time: 00:55:26
(UTC+00:00)
Language:

STARLINK-4523 - Orbit

View from above orbital plane
View from above orbital plane
View from above satellite
View from above satellite

Ground track
Ground track

The orbit is defined by the following mean orbital elements,

1 53389U          26145.28953845 +.00000000 +00000-0 +25504-3 0 00002
2 53389  53.2124 140.2463 0001576  79.0437 281.0732 15.08911337    07
Epoch (UTC): 25 May 2026 06:56:56
Eccentricity: 0.0001576
inclination: 53.2124°
perigee height: 538 km
apogee height: 541 km
right ascension of ascending node: 140.2463°
argument of perigee: 79.0437°
revolutions per day: 15.08911337
mean anomaly at epoch: 281.0732°

The dashed part of the orbit path shows where the satellite is in the earth's shadow,  

DLR